{"data":{"norad_id":56800,"intl_designator":"2023-078AK","name":"STARLINK-6036","alt_names":[],"object_type":"PAYLOAD","status":"ACTIVE","operator":null,"country":"US","launch_date":"2023-05-31","launch_site_code":"AFWTR","launch_vehicle":null,"mission":null,"orbit_class":"UNKNOWN","rcs_meters":null,"size_class":null,"mass_kg":null,"dimensions":null,"purposes":["comms"],"wikipedia_slug":null,"has_3d_model":false,"image_url":null,"decayed_at":null,"tle_current":{"epoch":"2026-05-25T03:51:47.438208Z","epoch_age_seconds":54522,"freshness":"FRESH","line1":"1 56800U 23078AK  26145.16096572  .00000330  00000+0  35495-4 0  9998","line2":"2 56800  69.9983 151.6940 0003489 267.7903  92.2857 14.98330608164139","mean_motion":14.98330608,"eccentricity":0.0003489,"inclination_deg":69.9983,"raan_deg":151.694,"arg_perigee_deg":267.7903,"mean_anomaly_deg":92.2857,"bstar":3.5495e-5,"rev_number":16413,"period_min":96.10696012692,"perigee_km":569.62908911155,"apogee_km":574.47893239886,"semimajor_km":6950.1910107552,"source":"CELESTRAK","updated_at":"2026-05-25T13:38:18.158250Z"}}}